EW9776 Weather Reports


Display with metric or nautical units.
time (UTC)temp
F
wind
direction
speed
MPH
gust
MPH
rain 1hr
in
rain 24hr
in
rain mn
in
humidity
%
barometer
mb
20260901221536 70 358 8.0 15.0 0.00 0.00 0.00 55 1010.9
20260901220036 70 21 5.0 11.0 0.00 0.00 0.00 57 1010.7
20260901214537 69 8 4.0 12.0 0.00 0.00 0.00 58 1010.8
20260901213108 68 22 5.0 11.0 0.00 0.00 0.00 61 1011.0
20260901211608 66 353 6.0 12.0 0.00 0.00 0.00 63 1011.1
20260901210035 67 353 8.0 16.0 0.00 0.00 0.00 61 1011.2
20260901203110 69 343 7.0 14.0 0.00 0.00 0.00 59 1011.2
20260901201640 69 348 5.0 12.0 0.00 0.00 0.00 59 1011.3
20260901200037 69 343 5.0 11.0 0.00 0.00 0.00 59 1011.4
20260901193030 69 27 6.0 11.0 0.00 0.00 0.00 59 1011.9
20260901191537 68 16 6.0 12.0 0.00 0.00 0.00 60 1012.1
20260901190036 68 23 5.0 11.0 0.00 0.00 0.00 60 1012.2
20260901184538 67 14 5.0 9.0 0.00 0.00 0.00 62 1012.3
20260901183043 66 12 5.0 10.0 0.00 0.00 0.00 63 1012.4
20260901181536 66 355 6.0 11.0 0.00 0.00 0.00 64 1012.4
20260901180035 66 20 5.0 11.0 0.00 0.00 0.00 64 1012.5
20260901173035 64 15 4.0 9.0 0.00 0.00 0.00 67 1012.6
20260901171536 63 33 4.0 8.0 0.00 0.00 0.00 71 1012.6
20260901164531 60 14 4.0 8.0 0.00 0.00 0.00 75 1012.6
20260901163032 60 42 3.0 7.0 0.00 0.00 0.00 76 1012.6
20260901161534 59 47 2.0 4.0 0.00 0.00 0.00 77 1012.6
20260901160036 58 64 2.0 4.0 0.00 0.00 0.00 79 1012.4
20260901154533 57 96 2.0 5.0 0.00 0.00 0.00 81 1012.4
20260901153111 56 42 2.0 7.0 0.00 0.00 0.00 84 1012.3
20260901150140 55 65 2.0 5.0 0.00 0.00 0.00 84 1012.2
20260901144535 56 45 1.0 4.0 0.00 0.00 0.00 83 1012.2
20260901143109 56 62 1.0 5.0 0.00 0.00 0.00 83 1012.1
20260901140038 54 342 1.0 6.0 0.00 0.00 0.00 85 1011.8
20260901134535 55 66 1.0 4.0 0.00 0.00 0.00 84 1011.6
20260901133034 56 36 1.0 6.0 0.00 0.00 0.00 83 1011.5
20260901131532 55 86 2.0 6.0 0.00 0.00 0.00 83 1011.4
20260901130030 56 104 2.0 5.0 0.00 0.00 0.00 82 1011.3
20260901124535 56 103 2.0 6.0 0.00 0.00 0.00 81 1011.3
20260901123036 56 62 2.0 5.0 0.00 0.00 0.00 80 1011.2
20260901120035 57 39 2.0 6.0 0.00 0.00 0.00 77 1011.1
20260901114536 57 102 2.0 6.0 0.00 0.00 0.00 76 1011.2
20260901113034 57 116 1.0 4.0 0.00 0.00 0.00 75 1011.1
20260901111652 57 95 2.0 5.0 0.00 0.00 0.00 75 1011.1
20260901110040 57 78 1.0 4.0 0.00 0.00 0.00 75 1011.1
20260901104609 57 127 0.0 3.0 0.00 0.00 0.00 73 1011.1
20260901103036 58 67 1.0 4.0 0.00 0.00 0.00 70 1011.0
20260901100035 59 64 2.0 6.0 0.00 0.00 0.00 65 1011.0
20260901094536 60 121 2.0 4.0 0.00 0.00 0.00 62 1011.0
20260901093035 59 81 3.0 8.0 0.00 0.00 0.00 65 1011.0
20260901091536 58 93 2.0 5.0 0.00 0.00 0.00 66 1011.0
20260901090037 57 127 1.0 3.0 0.00 0.00 0.00 67 1010.8
20260901083034 57 131 1.0 2.0 0.00 0.00 0.00 66 1011.1
20260901081651 57 166 2.0 4.0 0.00 0.00 0.00 63 1011.1
20260901080034 58 182 2.0 3.0 0.00 0.00 0.00 61 1011.0
20260901074535 59 183 1.0 3.0 0.00 0.00 0.00 56 1010.8
20260901073033 61 178 2.0 5.0 0.00 0.00 0.00 51 1010.8
20260901071610 62 162 2.0 5.0 0.00 0.00 0.00 49 1010.7
20260901070034 62 180 2.0 6.0 0.00 0.00 0.00 48 1010.6
20260901064535 64 213 2.0 6.0 0.00 0.00 0.00 45 1010.6
20260901063035 64 183 5.0 10.0 0.00 0.00 0.00 44 1010.8
20260901061536 64 179 4.0 7.0 0.00 0.00 0.00 43 1010.8
20260901060037 61 179 4.0 7.0 0.00 0.00 0.00 52 1010.9
20260901053036 63 172 3.0 7.0 0.00 0.00 0.00 50 1010.9
20260901051533 63 179 0.0 5.0 0.00 0.00 0.00 49 1010.9
20260901050111 63 115 1.0 4.0 0.00 0.00 0.00 50 1010.9
20260901044608 62 196 2.0 4.0 0.00 0.00 0.00 51 1010.9
20260901043029 65 201 1.0 4.0 0.00 0.00 0.00 45 1010.7
20260901040142 69 103 2.0 4.0 0.00 0.00 0.00 40 1010.5
20260901033035 69 184 6.0 10.0 0.00 0.00 0.00 42 1009.9
20260901031533 68 186 5.0 9.0 0.00 0.00 0.00 44 1009.9
20260901030033 65 184 4.0 7.0 0.00 0.00 0.00 49 1009.9
20260901024534 64 182 4.0 6.0 0.00 0.00 0.00 58 1009.8
20260901023142 65 180 3.0 4.0 0.00 0.00 0.00 62 1009.7
20260901020037 71 180 3.0 4.0 0.00 0.00 0.00 53 1009.8
20260901014611 76 180 3.0 5.0 0.00 0.00 0.00 47 1009.8
20260901013150 82 204 2.0 4.0 0.00 0.00 0.00 36 1009.7
20260901011534 83 257 1.0 3.0 0.00 0.00 0.00 33 1009.8
20260901010035 82 294 1.0 4.0 0.00 0.00 0.00 30 1009.8
20260901004535 83 354 2.0 5.0 0.00 0.00 0.00 29 1009.9
20260901003039 83 350 2.0 4.0 0.00 0.00 0.00 27 1010.0
20260901001534 83 348 1.0 5.0 0.00 0.00 0.00 26 1010.2
20260901000034 82 338 2.0 6.0 0.00 0.00 0.00 26 1010.3
20260831234653 82 274 1.0 4.0 0.00 0.00 0.00 26 1010.4
20260831233035 83 32 4.0 10.0 0.00 0.00 0.00 25 1010.5
20260831231642 83 29 2.0 7.0 0.00 0.00 0.00 26 1010.7
20260831230032 83 26 4.0 11.0 0.00 0.00 0.00 26 1010.9
20260831224538 82 30 6.0 12.0 0.00 0.00 0.00 26 1011.1
20260831223109 82 30 6.0 13.0 0.00 0.00 0.00 27 1011.3